星链-36804(STARLINK-36804)

导读

STARLINK-36804是美国太空探索技术公司(SpaceX)星链(Starlink)互联网卫星星座的一员,于2026年2月15日从美国发射升空,承担为全球提供高速低延迟宽带互联网服务的任务,尤其服务偏远地区、海洋、航空等传统网络覆盖不足区域,进一步扩充了星链星座的在轨规模与服务能力。

基本信息
目录编号:
67799
目录名称:
STARLINK-36804
国际标识:
2026-032C
轨道中心:
EARTH
卫星名称:
星链-36804
卫星全名:
星链-36804(STARLINK-36804)
卫星状态:
在轨 (已飞行201 天)
发射日期:
2026-02-15 UTC
国别 :
美国 (US)
星等 :
--
轨道信息
数据来源 国际轨道数据
星历时间: 2026-09-03T19:45:34+0800
21小时前
查看轨道信息
半长轴: 6843.693km
偏心率: 0.0001936
轨道倾角: 97.288°
近地点辐角 100.342°
升交点赤经 73.065°
平近点角 259.804°
近地点: 464.231km
远地点: 466.881km
周期: 93.906分钟
每日圈数: 15.334408
详细信息
固有亮度:
5
最大亮度:
2.5
卫星平台:
Starlink V1.0
覆盖范围:
全球
运营商:
太空探索技术公司
运营商所在国:
美国
制造商(研发单位):
太空探索技术公司
制造商所在国:
美国
使用方式:
暂无
卫星简介
Starlink 计划是 SpaceX 推出的全球卫星互联网项目,通过发射低轨道卫星,为全球尤其是偏远地区提供高速、低延迟的互联网服务。自 2019 年起,Starlink 已部署数千颗卫星,旨在缩小全球数字鸿沟,推动互联网普及。该项目还为军事、航空等行业提供通信支持,带来广泛经济效益。
2D轨道图
3D轨道图
轨道高度分析图
轨道倾角分析图
轨道综合分析图
查看轨道综合分析图
交会数据列表
事件ID 空间交会对象 最接近时刻(TCA) 交会距离 交会风险概率(CRP) 交会风险指数(CRI) 操作
CDM_260905-070706-240706-779921
2026-09-05T
07:07:18+0000
2.235 km
极远距离
2.154722E-6 低风险 0.42
CDM_260906-152905-015906-779921
2026-09-06T
15:29:12+0000
2.343 km
极远距离
1.61718E-6 低风险 0.39
CDM_260906-144205-015906-779921
2026-09-06T
14:42:16+0000
2.373 km
极远距离
1.577092E-6 低风险 0.39
CDM_260905-044205-248206-779921
2026-09-05T
04:42:14+0000
2.755 km
极远距离
1.395017E-6 低风险 0.38
CDM_260904-095205-228106-779921
2026-09-04T
09:52:24+0000
2.374 km
极远距离
1.361438E-6 低风险 0.38
CDM_260905-181604-748606-779921
2026-09-05T
18:16:58+0000
2.952 km
极远距离
1.350523E-6 低风险 0.38
CDM_260830-032906-473906-779921
2026-08-30T
03:29:23+0000
2.787 km
极远距离
9.255298E-7 极低风险 0.34